Regional Weather Roundup
Issued by NWS

Home | Current Version | Previous Version | Text Only | Print | Product List | Glossary Off
Versions: 1 2 3 4 5 6 7 8 9 10 11 12 13 14 15 16 17 18 19 20 21 22 23 24 25 26 27 28 29 30 31 32 33 34 35 36 37 38 39 40 41 42 43 44 45 46 47 48 49 50

287
ASUS44 KJAN 151403
RWRMS

MISSISSIPPI HOURLY WEATHER ROUNDUP
NATIONAL WEATHER SERVICE JACKSON MS
900 AM CDT TUE APR 15 2014

NOTE: "FAIR: INDICATES FEW OR NO CLOUDS BELOW 12,000 FEET WITH NO
SIGNIFICANT WEATHER AND/OR OBSTRUCTIONS TO VISIBILITY.

MSZ001>002-007>008-010>013-018>021-025>028-034>036-151500-
NORTHWEST MISSISSIPPI

CITY           SKY/WX    TMP DP  RH WIND       PRES   REMARKS
CLARKSDALE       N/A     39  27  60 N22G29    30.24R WCI  29
CLEVELAND      FAIR      41  31  67 N21G29    30.23R
GREENWOOD      SUNNY     42  28  57 N16G28    30.20R
GREENVILLE     SUNNY     42  30  62 N18G26    30.22R
GRENADA        FAIR      41  30  65 N14G23    30.19R
OLIVE BRANCH   SUNNY     37  27  65 N14G29    30.19S WCI  29
OXFORD         FAIR      37  25  60 N10G22    30.19R WCI  30
TUNICA         SUNNY     41  30  65 N17G23    30.24R
$$

MSZ003>006-009-014>017-022>024-029>033-037>039-151500-
NORTHEAST MISSISSIPPI

CITY           SKY/WX    TMP DP  RH WIND       PRES   REMARKS
BELMONT        FAIR      38  29  69 NW12G22   30.09S WCI  31
COLUMBUS AFB   CLOUDY    41  34  75 N23G29    30.10R
CORINTH        FAIR      39  27  60 N18G26    30.14R WCI  30
GOLDN TRIANGLE CLOUDY    39  30  70 NW14G28   30.12R WCI  31
STARKVILLE     CLOUDY    39  32  75 NW14G21   30.12R WCI  31
TUPELO         MOSUNNY   40  28  62 N20G29    30.13R WCI  30
$$

MSZ040-058-151500-
CENTRAL MISSISSIPPI

CITY           SKY/WX    TMP DP  RH WIND       PRES   REMARKS
JACKSON INTL   PTSUNNY   44  32  62 N21G33    30.15R
JACKSON HAWKNS SUNNY     44  30  57 N15G31    30.17R
MERIDIAN KEY   LGT RAIN  41  34  76 N18G30    30.10R
MERIDIAN NAS   CLOUDY    42  34  73 N17G30    30.10R
RAYMOND        FAIR      43  39  87 NW16G28   30.17R
VICKSBURG      SUNNY     46  34  62 N12G21    30.22R
$$

MSZ059>079-151500-
SOUTH MISSISSIPPI

CITY           SKY/WX    TMP DP  RH WIND       PRES   REMARKS
BROOKHAVEN     CLOUDY    41  36  81 NW13G18   30.16R
COLUMBIA       CLOUDY    43  36  75 MISG      30.11R
HATTIESBURG    LGT RAIN  44  38  79 N16G23    30.11R
MCCOMB         CLOUDY    43  32  65 N18G31    30.14R
NATCHEZ        MOSUNNY   45  30  57 N15G28    30.18R
PINE BELT      CLOUDY    43  34  70 N17       30.10R
$$

MSZ080>082-151500-
COASTAL MISSISSIPPI

CITY           SKY/WX    TMP DP  RH WIND       PRES   REMARKS
BAY ST LOUIS   CLOUDY    46  37  71 N17G28    30.08R
BILOXI         CLOUDY    48  43  82 N17G32    30.04R
PASCAGOULA     CLOUDY    48  44  86 NW13G23   30.02R
GULFPORT       CLOUDY    49  42  77 NW16G25   30.05R
$$



USA.gov is the U.S. government's official web portal to all federal, state and local government web resources and services.